Weather History for Kirksville, MO

Change the Weather History Date:

Thursday, May 9, 2013

  Actual Average Record
Temperature  
Mean Temperature 63 °F 60 °F  
Max Temperature 72 °F 70 °F 90 °F (1934)
Min Temperature 53 °F 49 °F 30 °F (1966)
Degree Days  
Heating Degree Days 2 6  
Month to date heating degree days 96 68  
Since 1 July heating degree days 5942 5758  
Cooling Degree Days 0 1  
Month to date cooling degree days 0 8  
Year to date cooling degree days 10 15  
Growing Degree Days 13 (Base 50)    
Moisture  
Dew Point 58 °F    
Average Humidity 83    
Maximum Humidity 100    
Minimum Humidity 66    
Precipitation  
Precipitation 0.33 in 0.15 in 1.39 in (1950)
Month to date precipitation 1.44 1.60  
Year to date precipitation 17.41 10.79  
Sea Level Pressure  
Sea Level Pressure 29.90 in    
Wind  
Wind Speed 6 mph (South)    
Max Wind Speed 17 mph    
Max Gust Speed 24 mph    
Visibility 9 miles    
Events Rain , Thunderstorm    
T = Trace of Precipitation, MM = Missing Value Source: NWS Daily Summary

Daily Weather History Graph

Daily Weather History Graph

Search for Another Location

Airport:

Trip Planner

Search our weather history database for the weather conditions in past years. The results will help you decide how hot, cold, wet, or windy it might be!

Date:

Astronomy

May. 09, 2013 Rise Set
Actual Time 6:00 AM CDT 8:13 PM CDT
Civil Twilight 5:30 AM CDT 8:43 PM CDT
Nautical Twilight 4:53 AM CDT 9:20 PM CDT
Astronomical Twilight 4:12 AM CDT 10:01 PM CDT
Moon 5:45 AM CDT (5/9) 8:08 PM CDT (5/9)
Length of Visible Light 15h 13m
Length of Day
14h 12m
Waning Crescent, 0% of the Moon is Illuminated
May 9
Waning Crescent
May 9
New
May 17
First Quarter
May 24
Full
May 31
Last Quarter

Hourly Weather History & Observations

Time (CDT) Temp. Dew Point Humidity Pressure Visibility Wind Dir Wind Speed Gust Speed Precip Events Conditions
12:55 AM 60.1 °F 54.0 °F 80% 29.93 in 10.0 mi SE 5.8 mph - N/A   Mostly Cloudy
1:40 AM 60.8 °F 55.4 °F 82% 29.94 in 10.0 mi South 5.8 mph - N/A Thunderstorm Overcast
1:55 AM 61.0 °F 55.0 °F 81% 29.96 in 10.0 mi SSW 10.4 mph - 0.00 in Rain , Thunderstorm Light Rain
2:10 AM 59.0 °F 57.2 °F 94% 29.95 in 2.5 mi South 15.0 mph - 0.10 in Rain , Thunderstorm Light Rain
2:18 AM 59.0 °F 57.2 °F 94% 29.96 in 6.0 mi South 11.5 mph 20.7 mph 0.10 in Rain , Thunderstorm Light Rain
2:53 AM 59.0 °F 57.2 °F 94% 29.95 in 5.0 mi South 9.2 mph - 0.14 in Rain Light Rain
2:55 AM 59.0 °F 57.9 °F 96% 29.95 in 4.0 mi South 10.4 mph - 0.15 in Rain Rain
3:55 AM 59.0 °F 57.9 °F 96% 29.94 in 8.0 mi South 6.9 mph - 0.11 in Rain Light Rain
4:55 AM 59.0 °F 57.0 °F 93% 29.89 in 10.0 mi SE 12.7 mph - 0.07 in   Mostly Cloudy
5:55 AM 57.9 °F 57.0 °F 97% 29.88 in 10.0 mi SE 8.1 mph - N/A   Mostly Cloudy
6:55 AM 59.0 °F 57.9 °F 96% 29.90 in 9.0 mi SE 6.9 mph - N/A   Mostly Cloudy
7:55 AM 60.1 °F 59.0 °F 96% 29.90 in 9.0 mi Calm Calm - N/A   Mostly Cloudy
8:55 AM 62.1 °F 59.0 °F 90% 29.91 in 10.0 mi East 4.6 mph - N/A   Overcast
9:14 AM 62.6 °F 59.0 °F 88% 29.90 in 10.0 mi NE 4.6 mph - N/A   Overcast
9:37 AM 62.6 °F 59.0 °F 88% 29.91 in 10.0 mi Calm Calm - N/A   Overcast
9:44 AM 62.6 °F 59.0 °F 88% 29.91 in 10.0 mi NNE 3.5 mph - N/A   Overcast
9:55 AM 62.1 °F 59.0 °F 90% 29.91 in 10.0 mi Calm Calm - N/A   Overcast
10:55 AM 62.1 °F 59.0 °F 90% 29.91 in 10.0 mi East 3.5 mph - 0.00 in   Overcast
11:09 AM 62.6 °F 60.8 °F 94% 29.90 in 10.0 mi East 4.6 mph - N/A   Overcast
11:14 AM 62.6 °F 60.8 °F 94% 29.90 in 10.0 mi ESE 3.5 mph - N/A   Overcast
12:06 PM 64.4 °F 60.8 °F 88% 29.89 in 10.0 mi SE 4.6 mph - N/A   Mostly Cloudy
12:27 PM 66.2 °F 62.6 °F 88% 29.89 in 10.0 mi SE 3.5 mph - N/A   Overcast
12:55 PM 66.9 °F 62.1 °F 84% 29.87 in 10.0 mi SE 4.6 mph - N/A   Overcast
1:36 PM 68.0 °F 60.8 °F 78% 29.87 in 10.0 mi SW 4.6 mph - N/A   Overcast
1:55 PM 69.1 °F 61.0 °F 75% 29.86 in 10.0 mi SW 6.9 mph - N/A   Overcast
2:16 PM 69.8 °F 60.8 °F 73% 29.86 in 10.0 mi Calm Calm - N/A   Mostly Cloudy
2:32 PM 71.6 °F 62.6 °F 73% 29.85 in 10.0 mi SSW 8.1 mph - N/A   Mostly Cloudy
2:55 PM 69.1 °F 60.1 °F 73% 29.84 in 10.0 mi SW 6.9 mph - N/A   Mostly Cloudy
3:55 PM 69.1 °F 59.0 °F 70% 29.84 in 10.0 mi WSW 10.4 mph 16.1 mph 0.00 in   Overcast
4:55 PM 71.1 °F 60.1 °F 68% 29.84 in 10.0 mi West 10.4 mph 16.1 mph N/A   Mostly Cloudy
5:55 PM 69.1 °F 57.9 °F 68% 29.84 in 10.0 mi WNW 9.2 mph 19.6 mph N/A   Mostly Cloudy
6:55 PM 66.9 °F 57.9 °F 73% 29.85 in 10.0 mi WNW 12.7 mph 20.7 mph N/A   Partly Cloudy
7:55 PM 64.0 °F 57.0 °F 78% 29.88 in 10.0 mi NW 5.8 mph - N/A   Scattered Clouds
8:55 PM 61.0 °F 55.9 °F 83% 29.89 in 10.0 mi WSW 3.5 mph - N/A   Clear
9:55 PM 57.9 °F 55.9 °F 93% 29.90 in 10.0 mi SW 3.5 mph - N/A   Clear
10:55 PM 55.0 °F 54.0 °F 96% 29.89 in 9.0 mi Calm Calm - N/A   Clear
11:55 PM 57.0 °F 55.0 °F 93% 29.91 in 10.0 mi WSW 4.6 mph - N/A   Clear